Location: Venise Bay
(45.0825°N, 73.1481°W)
Time: 04:26:58
(UTC-04:00)

X-37B - Visible Passes

Search period start: 23 September 2023 00:00
Search period end: 03 October 2023 00:00
Orbit: 277 x 277 km, 45.0° (Epoch: 01 November)

Date Brightness Start Highest point End Pass type
(mag) Time Alt. Az. Time Alt. Az. Time Alt. Az.
23 Sep 1.7 04:50:32 32° E 04:50:32 32° E 04:52:03 10° E visible
24 Sep 1.8 04:51:17 31° E 04:51:17 31° E 04:52:44 10° E visible
25 Sep 1.9 04:52:05 28° E 04:52:05 28° E 04:53:26 10° E visible
26 Sep 2.2 04:52:57 23° ESE 04:52:57 23° ESE 04:54:05 10° ESE visible
27 Sep 2.6 04:53:56 17° SE 04:53:56 17° SE 04:54:40 10° ESE visible
28 Sep 3.1 04:55:03 11° SE 04:55:03 11° SE 04:55:08 10° SE visible
